Weather History for Spencer, IA

Change the Weather History Date:

Sunday, February 16, 2014

  Actual Average Record
Temperature  
Mean Temperature 16 °F -  
Max Temperature 21 °F 28 °F 64 °F (1981)
Min Temperature 10 °F 8 °F -21 °F (1979)
Degree Days  
Heating Degree Days 50    
Moisture  
Dew Point 12 °F    
Average Humidity 80    
Maximum Humidity 85    
Minimum Humidity 75    
Precipitation  
Precipitation 0.00 in - - ()
Sea Level Pressure  
Sea Level Pressure 30.11 in    
Wind  
Wind Speed 15 mph (ESE)    
Max Wind Speed 26 mph    
Max Gust Speed 37 mph    
Visibility 9 miles    
Events Snow    
Averages and records for this station are not official NWS values.
T = Trace of Precipitation, MM = Missing Value Source: NWS Daily Summary

Daily Weather History Graph

Daily Weather History Graph

Search for Another Location

Airport:

Trip Planner

Search our weather history database for the weather conditions in past years. The results will help you decide how hot, cold, wet, or windy it might be!

Date:

Astronomy

Feb. 16, 2014 Rise Set
Actual Time 7:17 AM CST 5:53 PM CST
Civil Twilight 6:47 AM CST 6:22 PM CST
Nautical Twilight 6:14 AM CST 6:55 PM CST
Astronomical Twilight 5:41 AM CST 7:28 PM CST
Moon 7:55 PM CST 7:43 AM CST
Length of Visible Light 11h 34m
Length of Day
10h 36m
Full, 97% of the Moon is Illuminated
Feb 16
Full
Feb 22
Last Quarter
Mar 1
New
Mar 8
First Quarter
Mar 16
Full

Hourly Weather History & Observations

Time (CST) Temp. Windchill Dew Point Humidity Pressure Visibility Wind Dir Wind Speed Gust Speed Precip Events Conditions
12:03 AM 17.1 °F 1.5 °F 12.9 °F 84% 30.05 in 8.0 mi NNW 17.3 mph - 0.00 in Snow Light Snow
12:53 AM 16.0 °F -0.9 °F 10.9 °F 81% 30.12 in 4.0 mi NNW 19.6 mph - 0.00 in Snow Light Snow
1:53 AM 14.0 °F -0.2 °F 9.0 °F 80% 30.15 in 8.0 mi NW 12.7 mph - 0.00 in Snow Light Snow
2:41 AM 12.9 °F -0.9 °F 9.0 °F 84% 30.09 in 10.0 mi NW 11.5 mph - 0.00 in   Overcast
2:53 AM 12.9 °F 0.7 °F 9.0 °F 84% 30.16 in 10.0 mi NW 9.2 mph - 0.00 in   Overcast
3:53 AM 12.0 °F -2.0 °F 8.1 °F 84% 30.16 in 7.0 mi NNW 11.5 mph - 0.00 in Snow Light Snow
4:53 AM 10.9 °F 2.9 °F 7.0 °F 84% 30.18 in 10.0 mi NW 4.6 mph - 0.00 in   Overcast
5:53 AM 10.0 °F -2.9 °F 6.1 °F 84% 30.21 in 8.0 mi WNW 9.2 mph - 0.00 in   Overcast
6:42 AM 10.0 °F 0.4 °F 6.1 °F 84% 30.15 in 7.0 mi NW 5.8 mph - 0.00 in   Overcast
6:53 AM 10.0 °F -1.9 °F 6.1 °F 84% 30.23 in 8.0 mi WNW 8.1 mph - 0.00 in   Overcast
7:53 AM 10.0 °F -0.9 °F 6.1 °F 84% 30.25 in 6.0 mi NNW 6.9 mph - 0.00 in Snow Light Snow
8:53 AM 12.0 °F -0.4 °F 6.1 °F 77% 30.23 in 7.0 mi NE 9.2 mph - 0.00 in   Overcast
9:53 AM 12.9 °F 0.7 °F 7.0 °F 77% 30.22 in 10.0 mi East 9.2 mph - 0.00 in   Overcast
10:53 AM 16.0 °F 1.1 °F 10.0 °F 77% 30.19 in 10.0 mi East 15.0 mph - N/A   Mostly Cloudy
11:53 AM 18.0 °F 4.8 °F 12.0 °F 78% 30.19 in 10.0 mi SE 12.7 mph - N/A   Overcast
12:02 PM 18.0 °F 3.1 °F 12.0 °F 78% 30.12 in 10.0 mi SE 16.1 mph - N/A   Overcast
12:53 PM 19.0 °F 3.6 °F 12.9 °F 77% 30.14 in 10.0 mi SE 18.4 mph - N/A   Overcast
1:53 PM 19.9 °F 4.8 °F 14.0 °F 78% 30.11 in 10.0 mi SE 18.4 mph - N/A   Overcast
2:53 PM 21.9 °F 6.9 °F 15.1 °F 75% 30.09 in 10.0 mi SE 19.6 mph - N/A   Overcast
3:02 PM 21.9 °F 6.5 °F 15.1 °F 75% 30.02 in 10.0 mi SE 20.7 mph - N/A   Mostly Cloudy
3:53 PM 21.9 °F 6.9 °F 15.1 °F 75% 30.06 in 10.0 mi SE 19.6 mph - N/A   Clear
4:53 PM 21.9 °F 7.3 °F 15.1 °F 75% 30.04 in 10.0 mi SE 18.4 mph 28.8 mph N/A   Clear
5:53 PM 21.9 °F 7.3 °F 16.0 °F 78% 30.04 in 9.0 mi SE 18.4 mph 25.3 mph N/A   Clear
6:53 PM 21.9 °F 6.9 °F 15.1 °F 75% 30.02 in 10.0 mi SE 19.6 mph - N/A   Clear
7:53 PM 21.9 °F 5.5 °F 15.1 °F 75% 30.01 in 10.0 mi SE 24.2 mph 34.5 mph N/A   Clear
8:53 PM 21.0 °F 5.4 °F 16.0 °F 81% 29.99 in 9.0 mi SE 20.7 mph 29.9 mph N/A   Clear
9:53 PM 21.0 °F 4.3 °F 16.0 °F 81% 29.96 in 8.0 mi SE 24.2 mph 31.1 mph N/A   Partly Cloudy
10:53 PM 21.0 °F 3.6 °F 16.0 °F 81% 29.93 in 7.0 mi SE 26.5 mph 36.8 mph N/A   Partly Cloudy
11:53 PM 21.0 °F 5.4 °F 17.1 °F 85% 29.94 in 7.0 mi SSE 20.7 mph - N/A   Partly Cloudy